Flag for U.S.A. Weather past 2 weeks in Portsmouth, Virginia, U.S.A.

Now
90 °F

Broken clouds.


Feels Like: 95 °F
Forecast: 72 / 90 °F
Wind: 9 mph from South

Location: Norfolk Naval Air Station

Current Time: Aug 3, 2015 at 3:49:17 PM

Latest Report: Aug 3, 2015 at 2:59 PM


Visibility: 10 mi

Pressure: 29.90 "Hg

Humidity: 50%

Dew point: 69 °F

Location of PortsmouthLocation

Historic Weather in Portsmouth — Graph

°F

Portsmouth temperature yesterday

Maximum temperature yesterday: 85 °F (at 10:59 AM)
Minimum temperature yesterday: 72 °F (at 11:59 PM)
Average temperature yesterday: 80 °F

Past Weeks' High & Low Weather Summary

 TemperatureHumidityPressure
High93 °F (Jul 20, 2:59 PM)97% (Jul 31, 3:59 AM)30.06 "Hg (Jul 31, 3:59 AM)
Low65 °F (Jul 26, 3:59 AM)31% (Jul 26, 3:59 PM)29.63 "Hg (Jul 21, 3:59 PM)
Average80 °F70%29.92 "Hg
* Reported Jul 19 2:59 PM — Aug 3 2:59 PM, Portsmouth, Weather by CustomWeather, © 2015

Note: Actual official high and low records may vary slightly from our data, if they occured in-between our weather recording intervals... More about our weather records

Advertising

Portsmouth weather history for previous 24 hours

 ConditionsComfort  
Time TempWeatherWind HumidityBarometerVisibility
2:59 PM
Mon, Aug 3
90 °FBroken clouds.9 mph50%29.90 "Hg10 mi
1:59 PM89 °FBroken clouds.7 mph52%29.90 "Hg10 mi
12:59 PM88 °FBroken clouds.9 mph57%29.91 "Hg10 mi
11:59 AM86 °FBroken clouds.8 mph63%29.93 "Hg10 mi
10:59 AM83 °FPartly sunny.8 mph68%29.94 "Hg10 mi
9:59 AM81 °FScattered clouds.9 mph74%29.94 "Hg9 mi
8:59 AM79 °FScattered clouds.9 mph79%29.93 "Hg8 mi
7:59 AM76 °FScattered clouds.8 mph88%29.92 "Hg7 mi
6:59 AM74 °FFog.8 mph94%29.91 "Hg6 mi
5:59 AM73 °FPassing clouds.5 mph94%29.90 "Hg7 mi
4:59 AM74 °FPassing clouds.7 mph88%29.90 "Hg8 mi
3:59 AM72 °FPassing clouds.6 mph93%29.90 "Hg7 mi
2:59 AM74 °FPassing clouds.3 mph94%29.90 "Hg7 mi
1:59 AM74 °FFog.5 mph94%29.92 "Hg6 mi
12:59 AM73 °FFog.5 mph94%29.94 "Hg6 mi
11:59 PM
Sun, Aug 2
72 °FPassing clouds.No wind93%29.93 "Hg8 mi
10:59 PM74 °FPassing clouds.3 mph88%29.93 "Hg8 mi
9:59 PM74 °FPartly cloudy.No wind88%29.95 "Hg10 mi
8:59 PM76 °FBroken clouds.3 mph82%29.93 "Hg10 mi
7:59 PM80 °FBroken clouds.6 mph69%29.92 "Hg10 mi
6:59 PM83 °FBroken clouds.7 mph63%29.93 "Hg10 mi
5:59 PM84 °FBroken clouds.9 mph65%29.94 "Hg9 mi
4:59 PM85 °FBroken clouds.8 mph59%29.94 "Hg10 mi
3:59 PM84 °FBroken clouds.10 mph61%29.94 "Hg10 mi
Weather by CustomWeather, © 2015

See weather overviewHow to use our weather pages